#timestamp,LO_Frequency,Hit,StdDev 
1654102815.8,286046997.7,N
1654102835.7,286046997.2,N
1654102855.5,286046999.2,N
1654102875.3,286046999.6,N
1654102895.2,286046999.5,N
1654102915.0,286046996.7,Y
1654102915.9,286046996.7,P
1654102935.8,286047000.2,N
1654102955.6,286047000.3,N
1654102975.4,286047001.0,N
1654102995.3,286046998.8,N
1654103015.1,286046998.6,N
1654103035.8,286046999.1,N
1654103055.7,286046996.5,N
1654103075.5,286046996.5,N
1654103095.3,286046998.7,N
1654103115.2,286046999.0,N
1654103135.0,286046999.4,N
1654103135.9,286046999.4,N
1654103155.9,286046996.7,N
1654103175.7,286046997.3,N
1654103195.6,286046997.7,N
1654103215.4,286046997.4,N
1654103235.2,286046997.0,N
1654103255.1,286046996.5,N
1654103256.0,286046996.5,N
1654103275.8,286046999.4,N
1654103295.7,286046998.9,N
1654103315.5,286046998.7,N
1654103335.3,286046999.1,N
1654103355.2,286046999.0,N
1654103375.0,286047001.2,N
1654103375.9,286047001.2,N
1654103395.7,286046999.4,N
1654103415.6,286046998.4,N
1654103435.4,286046998.1,N
1654103455.3,286046998.5,N
1654103475.1,286047000.8,N
1654103476.0,286047000.8,N
1654103495.8,286046998.5,N
1654103515.7,286046998.2,N
1654103535.5,286046999.0,N
1654103555.3,286046998.3,N
1654103575.2,286046996.9,N
1654103595.0,286046997.3,N
1654103595.9,286046997.3,N
1654103615.8,286046999.6,N
1654103635.6,286046999.2,N
1654103655.4,286046998.9,N
1654103675.3,286046998.6,N
1654103695.1,286047001.2,N
1654103715.9,286046998.5,N
1654103735.7,286046998.6,N
1654103755.5,286046998.7,N
1654103775.4,286046996.9,N
1654103795.2,286046996.6,N
1654103815.0,286046999.6,N
1654103815.9,286046999.6,N
1654103835.8,286046999.4,N
1654103855.6,286046998.9,N
1654103875.5,286046998.3,N
1654103895.3,286046998.8,N
1654103915.1,286046999.4,N
1654103935.9,286046999.0,N
1654103955.7,286046999.3,N
1654103975.5,286046999.1,N
1654103995.4,286046998.9,N
1654104015.2,286046999.3,N
1654104035.1,286046997.7,N
1654104036.0,286046997.7,N
1654104055.8,286046996.9,Y
1654104075.6,286046998.5,P
1654104095.5,286047001.2,P
1654104115.3,286046999.9,N
1654104135.1,286047000.9,N
1654104155.9,286047000.8,N
1654104175.7,286047001.1,N
1654104195.6,286047000.2,N
1654104215.4,286047000.5,N
1654104235.2,286047001.0,N
1654104255.1,286047000.0,N
1654104256.0,286047000.0,N
1654104275.8,286047000.8,N
1654104295.7,286047000.6,N
1654104315.5,286047001.0,N
1654104335.3,286047001.1,N
1654104355.2,286047000.8,N
1654104375.0,286047000.3,N
1654104375.9,286047000.3,N
1654104395.7,286047000.3,N
1654104415.6,286047000.0,N
1654104435.4,286046998.4,N
1654104455.3,286046998.1,N
1654104475.1,286046999.0,N
1654104476.0,286046999.0,N
1654104495.8,286046997.3,N
1654104515.7,286046997.5,N
1654104535.5,286046996.7,N
1654104555.3,286046997.0,N
1654104575.2,286046999.2,N
1654104595.0,286046999.5,N
1654104595.9,286046999.5,N
1654104615.8,286046998.5,N
1654104635.6,286046998.6,N
1654104655.4,286047001.0,N
1654104675.3,286046998.3,N
1654104695.1,286046998.5,N
1654104715.8,286046998.5,N
1654104735.7,286046999.1,N
1654104755.5,286046999.3,N
1654104775.4,286046998.7,N
1654104795.2,286046999.3,N
1654104815.0,286046996.5,N
1654104815.9,286046996.5,N
1654104835.8,286046999.5,N
1654104855.6,286046998.8,N
1654104875.5,286046998.7,N
1654104895.3,286046998.2,N
1654104915.1,286046998.7,N
1654104935.9,286046996.5,Y
1654104955.7,286046998.6,P
1654104975.5,286047000.7,P
1654104995.4,286047000.6,N
1654105015.2,286047000.0,N
1654105035.1,286046998.1,N
1654105036.0,286046998.1,N
1654105055.8,286047000.9,N
1654105075.6,286047000.4,N
1654105095.5,286047000.5,N
1654105115.3,286047002.8,N
1654105135.1,286046999.8,N
1654105155.9,286047000.9,N
1654105175.7,286047000.5,N
1654105195.6,286047000.3,N
1654105215.4,286047001.2,N
1654105235.2,286046999.2,N
1654105255.1,286046996.6,N
1654105256.0,286046996.6,N
1654105275.8,286046997.3,N
1654105295.6,286046996.8,N
1654105315.5,286046996.6,N
1654105335.3,286046999.5,N
1654105355.2,286046999.2,N
1654105375.9,286046997.2,N
1654105395.7,286046997.1,N
1654105415.6,286046999.4,N
1654105435.4,286046996.5,N
1654105455.3,286046997.0,N
1654105475.1,286046996.7,N
1654105476.0,286046996.7,N
1654105495.8,286046999.5,N
1654105515.7,286046999.3,N
1654105535.5,286047001.2,N
1654105555.3,286046999.3,N
1654105575.2,286046999.3,N
1654105595.0,286046996.6,N
1654105595.9,286046996.6,N
1654105615.8,286046997.4,N
1654105635.6,286046999.2,N
1654105655.4,286046999.2,N
1654105675.3,286046999.2,N
1654105695.1,286046998.3,N
1654105715.9,286046998.1,N
1654105735.7,286047000.8,N
1654105755.5,286046998.2,N
1654105775.4,286047000.7,N
1654105795.2,286046998.7,N
1654105815.0,286046998.8,N
1654105816.0,286046998.8,N
1654105835.8,286046998.1,N
1654105855.6,286047003.1,N
1654105875.5,286047010.7,Y
1654105895.3,286047010.1,P
1654105915.1,286047008.0,N
1654105935.9,286047004.9,N
1654105955.7,286047005.6,N
1654105975.6,286047003.9,N
1654105995.4,286047001.6,N
1654106015.2,286047001.7,N
1654106035.1,286047002.5,N
1654106036.0,286047002.5,N
1654106055.8,286047002.4,N
1654106075.7,286047002.4,N
1654106095.1,286047002.0,N
1654106096.0,286047002.0,N
1654106115.8,286047001.5,N
1654106135.6,286047001.6,N
1654106155.5,286047003.9,N
1654106175.3,286047001.8,N
1654106195.1,286047004.4,N
1654106215.9,286047001.5,N
1654106235.7,286047001.6,N
1654106255.6,286047002.6,N
1654106275.4,286047002.6,N
1654106295.2,286047002.1,N
1654106315.1,286047001.8,N
1654106316.0,286047001.8,N
1654106335.8,286047002.7,N
1654106355.7,286047002.2,N
1654106375.5,286046999.9,N
1654106395.3,286047002.7,N
